Theta_e
327 327 326 326 326 326 327 327 327 327 327 328 328 328 329 329 329 329 329 328 328 328 328 327 326 326 326 328 328 328 326 321 319 317 314 315 323 328 326 331 337 336 331 320 315 310 306 308 308 312 309 310 312 311 315 313 313 313 305 304 301 303 300 303 302 303 304 303 304 305 306 305 303 304 306 307 305 307 307 307 311 314 315 321 320 327 334 334
325 326 326 326 326 326 326 326 326 326 326 327 328 328 328 328 328 328 328 328 328 327 328 327 326 325 326 327 328 326 322 318 313 314 314 322 323 326 333 335 336 334 327 315 312 309 307 306 307 309 308 306 317 309 312 310 313 307 306 305 301 304 304 306 305 305 304 303 305 306 307 306 305 305 306 304 304 304 304 306 309 309 314 319 322 330 332 332
326 325 326 326 326 326 326 326 326 326 326 326 326 327 327 327 327 327 327 327 327 327 327 327 325 325 325 326 327 325 318 313 309 308 313 327 328 330 335 335 338 334 320 312 312 311 309 309 308 307 307 307 309 308 309 307 309 309 308 302 304 306 304 305 306 304 305 306 304 305 306 306 306 306 307 304 304 304 303 304 306 306 312 315 323 330 329 331
325 325 325 325 325 326 326 326 326 326 326 326 325 326 327 326 327 327 327 327 327 326 326 326 326 325 324 324 325 320 315 309 305 309 313 323 328 330 335 338 336 331 320 315 315 312 313 312 309 307 306 306 307 310 306 307 306 307 306 304 305 305 304 303 305 304 304 306 305 304 305 304 305 306 306 304 303 302 304 307 306 305 310 314 322 327 329 330
324 324 325 325 325 325 325 326 326 326 325 325 325 326 326 326 326 326 327 326 326 326 325 325 326 326 324 324 323 317 312 305 306 310 327 328 331 333 332 336 337 325 318 314 313 313 311 310 307 306 306 304 306 307 306 307 309 307 303 304 305 305 304 303 303 302 303 303 306 305 302 303 307 305 305 305 301 301 304 307 308 309 309 316 321 327 329 329
324 324 324 325 324 324 324 326 326 326 326 325 325 325 325 325 325 326 326 326 326 326 325 325 326 325 325 324 319 314 312 295 310 312 326 333 333 335 333 336 334 324 317 312 311 311 309 308 306 303 304 304 303 303 307 307 309 302 303 304 305 304 304 303 303 301 302 304 304 303 305 306 304 304 306 305 304 304 307 307 307 308 314 320 322 327 328 329
323 324 324 324 324 324 324 325 326 326 325 324 324 325 325 325 324 325 325 325 325 325 324 325 325 325 325 322 318 311 311 315 308 320 326 332 337 337 337 336 332 321 314 311 309 308 308 306 305 303 304 304 304 304 305 305 307 306 302 304 303 304 303 302 301 300 301 303 304 305 304 304 304 301 304 303 306 305 305 308 306 306 315 320 321 325 326 328
322 322 323 323 323 323 324 325 325 325 324 324 324 324 324 324 324 324 325 325 325 324 325 325 325 326 325 318 308 304 304 305 312 324 332 336 335 333 331 328 322 317 312 310 309 307 308 305 302 305 303 302 304 304 305 304 305 304 302 304 302 303 302 302 301 301 302 302 303 303 303 303 304 303 302 303 306 307 306 308 308 310 315 318 320 321 323 326
322 322 322 322 322 323 324 324 324 324 324 323 323 324 324 324 324 324 324 324 323 324 324 325 325 325 324 316 305 301 300 311 315 326 332 327 327 323 321 317 318 314 312 312 310 309 307 304 304 306 302 303 307 304 304 303 299 305 304 304 303 302 302 302 301 302 302 303 303 302 303 303 302 302 302 305 305 304 306 308 311 311 313 315 318 320 322 324
322 322 323 322 322 322 323 323 323 323 323 323 323 323 323 323 322 323 323 323 322 322 324 324 323 324 319 312 306 296 307 310 320 328 327 316 314 314 313 314 314 313 311 310 310 308 306 305 304 308 306 305 307 304 306 304 302 306 304 304 303 302 302 302 302 302 303 303 302 302 302 302 302 301 300 305 304 304 305 308 310 311 310 313 317 320 322 324
321 322 322 322 322 322 322 322 322 322 323 323 322 323 322 322 321 321 322 321 321 322 323 323 324 322 315 312 300 296 313 316 315 322 320 316 312 311 310 313 314 312 311 309 307 309 309 308 308 308 305 303 306 303 304 303 305 305 304 303 302 302 303 302 303 302 304 301 303 303 302 302 302 301 301 303 303 305 305 307 310 309 311 313 315 319 323 324
321 321 321 322 322 322 322 322 321 321 322 322 322 322 321 321 320 321 321 320 321 322 322 323 323 320 315 308 302 301 305 314 314 318 320 314 310 313 315 312 313 313 311 307 307 310 310 309 309 306 300 308 301 303 302 304 305 303 304 299 300 302 301 302 302 302 304 302 302 303 301 299 300 299 304 302 303 304 305 306 309 308 311 316 317 319 321 323
320 321 321 321 321 322 322 322 321 321 321 321 321 320 320 320 320 320 320 320 321 322 322 322 322 320 311 298 303 308 312 313 313 316 315 316 312 311 313 313 313 313 312 310 307 310 311 309 308 304 305 304 303 299 303 305 305 305 304 302 299 300 299 301 302 302 302 302 301 301 293 298 301 302 303 303 303 304 303 304 306 308 309 311 317 319 320 322
320 320 320 320 320 321 322 322 321 320 321 320 320 320 319 319 319 320 320 319 321 321 322 322 321 318 309 299 308 313 313 313 313 313 312 312 310 312 310 312 313 312 314 310 311 312 310 309 308 306 308 304 300 304 303 301 302 300 301 303 298 296 296 301 302 301 300 302 301 302 294 298 301 303 302 303 303 303 303 304 305 306 308 310 313 315 318 321
320 320 320 319 320 320 321 321 321 320 320 320 320 320 319 319 319 319 320 320 320 322 322 322 321 312 300 299 309 315 320 312 309 310 313 311 309 309 309 310 311 312 311 311 310 309 309 309 307 303 301 304 305 302 299 300 300 301 296 294 299 297 298 299 301 301 299 300 303 300 295 297 300 300 302 303 303 303 303 304 305 305 306 307 310 312 314 317
319 319 319 319 319 320 320 320 320 320 319 319 320 319 318 319 319 319 319 319 321 321 320 315 315 314 299 297 309 320 312 307 307 313 314 314 312 307 310 309 310 309 309 307 309 308 308 308 303 303 303 303 301 300 298 297 297 299 296 296 296 298 297 297 298 301 301 301 301 300 296 299 300 302 302 302 303 303 303 303 305 305 305 306 306 308 310 312
319 319 319 319 319 320 319 319 319 319 319 319 319 318 318 318 319 319 319 320 320 320 317 308 312 311 295 305 313 307 305 310 310 311 311 312 312 311 309 308 307 307 308 306 308 308 307 304 303 303 304 300 301 300 295 293 294 295 297 295 298 295 297 295 298 301 302 301 298 300 297 298 301 303 302 302 304 303 303 303 304 305 305 306 307 307 307 308
319 319 319 319 319 319 319 319 319 319 319 318 317 317 316 318 319 320 319 318 320 318 316 311 312 301 296 303 301 303 310 306 311 311 312 309 311 311 309 307 307 306 305 304 307 303 305 301 303 298 299 299 299 298 293 290 294 293 293 294 294 296 296 295 295 298 299 299 299 299 298 298 301 303 302 303 304 303 303 303 304 305 306 306 307 307 307 308
319 318 318 319 319 319 318 318 319 318 318 318 318 319 319 320 319 316 312 313 307 301 297 299 299 290 291 297 305 307 309 310 310 309 306 309 310 310 310 310 308 304 301 300 300 302 303 302 302 298 294 296 296 298 296 297 298 296 296 295 296 293 293 294 296 298 300 298 296 298 297 298 300 301 303 304 304 303 303 304 305 305 306 306 307 308 308 309
319 318 318 319 318 318 318 318 319 318 318 316 315 314 313 307 306 303 310 310 302 300 300 301 302 299 298 302 304 307 311 314 305 308 309 311 307 307 307 307 307 304 300 296 299 301 304 297 294 294 296 297 299 300 299 300 300 300 299 298 296 295 296 296 297 297 298 298 297 298 299 298 299 301 303 304 305 304 304 304 304 305 306 306 307 307 309 309
318 318 319 318 318 318 318 318 318 318 317 314 313 309 300 300 295 293 301 303 304 302 302 303 302 301 302 306 305 305 303 304 308 306 309 312 309 306 302 304 300 297 299 300 299 304 302 295 295 298 299 299 299 299 298 298 299 299 297 297 296 297 295 297 296 297 298 296 297 299 298 299 300 302 303 304 304 303 303 303 304 305 306 307 308 309 310 310
318 318 318 317 317 318 318 318 317 317 317 315 313 306 304 306 308 310 304 294 301 304 303 304 304 304 306 307 308 307 309 302 303 306 310 310 305 301 301 301 297 295 299 300 300 297 295 294 297 299 301 301 299 299 298 297 297 298 297 296 295 295 297 296 296 297 298 295 295 298 297 298 300 301 303 303 304 305 305 305 305 305 306 307 307 308 308 309
317 317 317 317 317 318 317 317 317 317 314 311 309 308 307 310 313 311 307 300 297 303 302 301 300 301 303 306 307 308 302 299 298 304 305 309 303 302 301 299 296 297 299 300 295 294 291 295 299 300 300 298 298 298 298 297 298 297 296 294 293 296 293 291 295 297 296 296 296 297 296 298 300 302 303 303 302 303 302 301 301 302 302 303 304 304 305 306
317 317 317 317 317 317 317 316 318 315 311 311 310 310 315 315 316 313 304 296 293 298 301 302 305 303 302 301 308 304 302 301 302 300 308 306 301 305 300 299 297 297 295 297 297 295 294 297 294 299 299 299 296 297 297 296 294 300 298 296 296 294 294 298 295 296 296 296 295 296 295 295 297 297 299 299 299 298 300 301 301 302 304 305 307 307 308 306
316 316 316 316 316 316 316 316 311 309 312 311 310 315 315 317 316 313 302 296 296 297 303 303 308 306 305 308 306 301 302 303 303 305 306 306 302 300 299 303 299 295 296 297 297 296 295 295 296 296 298 297 297 295 296 297 293 295 300 299 297 296 295 296 295 294 294 294 297 295 289 291 297 298 299 299 299 299 301 302 303 304 305 306 305 307 309 309
316 316 316 315 316 316 317 308 307 311 310 307 311 315 317 317 314 311 303 292 287 294 299 293 308 299 312 303 305 302 304 298 303 305 307 307 307 303 300 298 300 294 296 296 296 299 295 292 295 296 297 298 297 295 298 298 294 294 294 299 297 296 297 296 295 295 290 288 294 294 289 287 296 296 297 297 298 299 301 302 302 303 304 305 306 307 307 307
315 315 315 315 315 316 308 302 311 311 304 307 314 316 315 314 316 311 298 288 285 295 292 298 298 301 308 303 303 305 290 294 303 305 305 307 303 304 298 296 297 298 299 299 295 292 294 293 294 297 297 297 296 294 299 299 295 293 297 298 297 297 297 296 297 297 295 295 294 294 295 289 291 296 298 298 297 298 300 301 302 303 303 304 304 306 306 308
315 315 314 316 315 314 309 310 309 306 306 313 316 316 313 314 313 305 295 279 279 299 292 294 297 306 305 302 304 297 299 303 297 300 304 307 305 301 300 296 295 296 295 296 287 297 294 293 296 295 297 295 294 298 301 299 296 296 295 300 298 297 298 298 297 296 297 295 290 293 297 289 289 295 296 297 295 297 298 300 301 302 303 304 305 305 306 306
314 314 314 314 315 314 316 310 308 306 312 312 316 314 314 311 308 297 288 279 295 293 309 293 307 304 301 302 299 300 300 302 297 301 305 304 305 302 297 299 298 296 297 298 292 294 297 296 297 298 297 294 295 294 297 299 296 294 298 301 301 302 301 299 296 296 295 290 286 292 294 287 289 296 294 296 295 296 298 300 301 301 303 304 304 305 305 306
314 314 314 314 314 312 312 312 309 314 315 314 315 314 312 307 297 288 282 277 296 286 295 297 297 295 299 295 296 299 298 299 300 300 302 301 302 304 299 304 299 297 297 299 296 294 295 297 296 298 296 297 294 295 297 298 298 299 300 299 298 298 297 296 297 294 291 285 288 290 290 291 285 294 295 293 295 297 299 300 300 301 302 303 304 305 306 306
314 314 314 314 309 311 311 306 310 315 315 314 314 312 307 300 289 283 277 286 296 292 296 294 295 300 295 294 291 298 298 297 298 299 296 300 298 300 300 298 303 298 296 296 295 296 295 295 298 297 295 297 298 296 298 299 300 301 298 296 295 293 295 293 291 292 286 284 287 287 290 291 284 290 298 297 296 298 300 298 299 301 302 303 303 304 305 306
314 314 314 312 313 314 307 305 314 316 315 314 312 306 297 286 290 281 280 297 285 289 291 291 297 296 295 297 296 295 295 297 298 298 295 296 295 294 295 292 295 287 288 290 289 295 294 295 297 296 297 296 300 295 295 297 298 299 297 295 289 286 287 284 287 283 284 284 286 288 290 287 287 292 295 296 297 298 301 301 301 301 302 303 303 304 305 306
313 313 314 314 312 312 314 315 316 316 315 312 309 302 291 285 277 286 288 289 286 294 291 298 295 295 295 295 293 296 299 293 298 298 298 298 295 296 299 297 298 295 286 292 292 292 293 298 297 298 297 296 298 293 291 291 295 296 293 291 287 284 282 281 284 286 286 284 286 288 291 285 292 294 299 297 298 300 302 302 303 303 302 303 303 304 304 305
313 313 312 313 313 315 315 314 315 315 311 311 303 295 291 281 281 293 290 290 292 296 296 295 296 296 295 292 294 296 292 295 296 295 298 295 295 292 295 296 298 295 297 293 289 289 285 285 292 295 292 299 296 297 296 294 295 295 303 295 290 289 284 280 284 281 282 285 284 288 285 286 286 290 294 298 299 298 298 299 301 303 303 303 303 304 304 304
313 312 314 314 313 313 313 314 314 314 312 306 298 290 282 282 287 286 289 291 292 295 294 298 294 293 292 296 296 296 296 291 296 295 295 294 292 294 293 294 296 298 299 289 294 291 290 289 292 295 295 295 297 298 297 299 296 297 298 299 291 290 294 286 286 286 285 284 283 283 285 292 293 296 297 297 297 297 298 298 300 300 301 302 302 303 303 303
311 311 314 310 311 310 312 313 314 314 308 301 292 286 284 287 285 293 291 296 294 293 293 295 295 291 290 291 294 294 297 294 294 294 294 294 296 293 297 296 295 297 295 290 293 287 290 286 293 296 296 295 296 295 295 297 287 293 294 289 292 295 292 284 284 284 282 284 284 289 288 292 296 296 296 296 296 295 297 298 299 299 300 302 302 303 303 303
307 310 306 309 310 312 313 313 314 311 306 298 290 285 289 290 298 295 297 294 294 296 294 288 289 290 288 288 290 293 293 297 293 294 289 296 292 296 296 297 300 297 299 297 292 298 289 288 292 294 292 294 295 294 297 294 296 294 287 293 295 297 297 289 283 284 283 281 284 288 285 288 288 286 295 294 294 294 295 297 299 300 300 301 303 303 303 304
307 307 308 307 309 313 314 314 312 309 303 297 288 290 295 293 296 298 299 297 297 297 292 290 291 296 289 289 289 292 294 292 290 293 290 293 290 299 296 295 299 298 298 296 294 294 297 285 290 291 293 295 297 298 295 297 296 294 293 303 292 285 285 288 287 280 280 280 283 285 287 288 290 291 291 292 293 294 295 297 298 298 299 301 302 303 303 302
308 306 299 305 310 313 314 314 311 304 298 292 289 288 295 300 299 298 299 298 299 296 291 293 291 292 294 290 292 293 293 289 292 291 289 291 288 297 296 298 296 299 299 297 294 295 297 288 286 293 293 294 295 295 287 291 297 296 296 293 296 292 289 286 286 287 286 282 281 283 283 284 292 294 294 294 295 296 295 296 297 299 300 301 302 302 302 302
304 301 297 305 310 314 315 313 305 300 295 288 290 290 300 296 296 300 298 300 296 295 294 294 295 290 293 293 294 290 293 293 291 292 292 293 291 296 295 300 296 296 297 296 297 300 291 294 285 289 294 294 288 292 291 293 289 290 291 289 293 292 294 292 294 288 286 284 284 283 282 286 294 297 297 297 297 297 296 296 298 299 301 302 302 302 302 303
306 301 296 306 309 314 313 307 298 294 292 295 297 296 297 297 298 297 301 300 298 297 296 296 294 291 293 293 292 295 292 293 293 291 292 292 292 288 296 297 299 294 296 296 297 297 289 290 287 287 288 288 291 293 292 293 295 293 292 290 291 289 286 284 283 292 285 285 283 283 281 289 295 293 298 298 299 299 299 298 299 300 301 302 303 303 303 303
301 292 295 306 308 311 306 296 296 299 295 292 292 296 295 300 297 297 298 299 301 297 298 298 299 297 295 293 294 293 292 290 292 292 292 291 294 294 296 300 298 297 295 291 293 298 296 295 290 286 288 290 292 293 292 292 290 292 293 293 295 293 292 287 282 285 286 285 285 286 283 286 294 293 294 295 295 299 300 300 300 301 302 302 303 303 304 304
298 293 301 304 308 309 302 295 298 296 295 296 299 299 300 299 297 298 297 299 297 299 296 296 295 295 296 296 295 292 292 290 293 291 294 295 295 294 297 296 298 296 297 294 297 293 295 290 288 288 290 291 292 293 293 291 293 293 294 294 294 291 293 291 289 290 286 285 284 285 282 288 294 295 292 293 293 293 299 301 301 301 302 302 302 303 302 302
295 294 297 306 309 307 299 289 289 293 295 296 298 297 300 299 298 295 296 298 297 295 295 296 294 297 295 298 296 292 295 288 294 295 292 296 293 291 292 295 297 295 296 294 293 297 289 290 291 285 285 286 289 292 291 294 293 292 292 294 294 296 292 290 288 290 286 287 287 285 281 287 296 294 292 291 292 292 295 300 302 301 301 302 302 302 302 302
295 298 298 300 307 305 295 297 294 293 293 293 295 293 294 295 300 297 298 296 299 299 298 294 296 297 296 298 296 297 296 294 289 295 297 295 294 293 293 297 297 296 300 301 298 299 291 291 290 284 281 279 278 280 283 286 288 292 294 295 295 294 294 289 286 287 284 288 288 286 286 292 292 293 291 292 293 292 296 300 301 303 302 301 301 301 301 301
290 287 293 297 301 301 302 300 301 296 293 293 292 295 296 294 296 298 301 298 299 299 300 297 297 298 295 296 294 293 294 295 295 290 293 292 292 291 295 293 295 299 294 296 298 298 290 295 292 290 287 285 287 290 296 296 292 288 290 291 292 293 295 293 292 288 285 288 287 289 290 292 290 293 292 292 293 292 294 298 299 300 301 302 301 301 301 301
292 289 290 286 295 297 296 299 298 298 293 296 289 295 293 295 295 295 301 295 298 298 298 298 296 294 293 294 293 293 295 293 293 294 293 293 293 293 293 295 294 294 293 295 298 295 291 289 292 293 293 293 295 296 298 296 292 292 291 291 293 291 291 289 288 286 292 287 284 291 293 289 292 294 294 294 294 294 295 297 299 300 301 300 300 300 298 301
286 288 290 293 290 288 290 292 298 297 298 296 294 296 294 294 293 291 296 299 299 299 295 294 296 299 295 294 295 290 293 292 293 290 295 294 292 293 292 295 294 295 293 297 301 297 291 288 293 293 293 294 293 293 296 295 295 295 294 293 292 292 291 287 288 293 294 288 286 292 293 291 293 295 296 296 295 294 296 297 299 301 301 301 300 299 299 300
289 287 289 293 290 293 295 296 298 297 295 295 295 294 294 294 292 295 295 295 296 295 299 291 293 296 296 298 295 292 293 287 287 293 289 290 292 290 290 291 294 295 296 294 295 296 293 289 293 294 291 294 294 294 296 295 294 294 295 295 294 293 291 291 291 293 293 292 294 294 297 295 296 297 297 298 298 297 298 299 300 300 299 299 299 298 299 299
286 287 287 292 293 293 296 296 296 295 293 294 292 293 295 294 293 296 298 296 292 295 299 295 295 297 297 297 296 293 294 294 294 290 294 292 288 294 291 293 291 292 294 292 294 293 293 289 295 294 289 290 292 291 292 294 294 292 295 296 294 293 292 293 293 294 293 293 295 294 296 295 299 300 300 301 299 300 299 298 298 300 300 299 299 298 299 299
291 291 292 290 287 289 294 296 294 293 292 293 291 294 295 295 295 297 297 300 297 295 296 295 298 296 297 297 297 297 299 298 299 297 296 294 290 295 292 292 295 289 291 289 290 292 292 288 293 291 286 286 289 289 290 291 289 289 291 293 293 292 289 291 290 294 292 290 292 292 290 292 297 300 301 297 297 297 297 298 298 299 300 299 298 299 299 300
293 293 291 291 286 288 288 294 295 293 289 293 294 295 295 295 298 298 293 299 300 301 299 300 297 295 293 294 294 297 301 300 301 302 300 301 302 301 300 299 295 292 289 290 293 289 289 289 287 288 285 285 285 288 287 287 286 284 285 291 294 294 293 294 295 295 295 295 290 288 289 296 298 298 297 295 295 296 297 298 298 299 300 299 299 299 300 301
Wind_Speed
22 22 22 23 22 22 21 20 22 22 22 21 20 20 18 17 17 16 17 12 16 17 15 15 14 14 14 14 14 13 10 4 2 2 5 15 5 6 14 2 5 7 9 5 6 4 5 6 8 5 5 6 4 5 3 4 3 5 6 6 7 4 8 7 3 3 5 8 9 10 10 7 7 6 4 2 4 1 5 5 6 5 4 7 7 3 8 13
23 24 23 23 23 21 22 22 22 22 21 21 20 20 20 19 18 16 16 13 16 17 17 15 16 15 15 15 14 15 8 5 2 6 14 3 5 13 4 5 7 10 9 9 9 8 8 8 8 7 8 7 5 3 3 3 2 7 5 5 6 5 5 3 6 6 1 8 9 9 9 6 5 10 6 6 7 6 6 6 7 6 8 9 8 8 12 12
24 25 24 23 23 22 22 21 21 21 21 19 20 20 18 16 15 15 14 13 15 15 16 15 16 16 16 16 15 13 8 5 5 12 17 22 17 9 9 7 9 11 12 11 9 9 10 9 8 9 9 7 8 6 5 4 3 4 4 7 0 7 7 7 4 6 7 4 10 9 8 4 5 5 7 5 7 6 6 7 7 7 10 10 11 12 11 12
24 23 24 23 23 21 22 22 21 21 21 20 20 19 17 15 14 14 14 14 14 15 14 15 16 18 17 17 16 9 8 7 5 6 16 14 18 19 11 10 12 12 12 10 8 10 10 9 8 9 8 9 8 7 8 4 4 3 6 3 5 4 5 4 5 4 4 5 8 8 8 5 5 3 7 4 5 6 5 4 7 8 10 13 13 14 12 13
24 25 23 23 23 23 22 22 21 21 21 20 19 19 16 14 14 14 15 15 15 15 16 15 16 17 19 18 14 8 11 2 8 12 3 4 15 20 19 14 11 12 12 6 4 7 5 9 10 10 8 7 9 8 10 8 4 5 0 4 3 2 2 4 4 4 3 4 3 8 9 6 6 3 6 6 7 3 2 3 2 5 4 16 14 14 12 14
25 24 24 22 22 22 22 22 22 21 20 22 19 16 15 15 14 14 14 15 14 16 17 16 15 16 17 19 11 6 7 8 1 3 2 6 6 13 18 15 13 11 11 8 10 8 8 10 11 10 9 7 11 11 9 9 5 8 2 2 4 4 3 3 3 3 1 3 5 8 4 6 7 4 6 5 7 6 6 8 8 6 5 11 12 14 13 13
23 23 22 21 22 22 23 23 21 19 20 21 20 16 16 15 14 14 14 16 15 15 18 17 16 16 19 17 8 6 6 6 2 1 4 7 9 11 10 10 9 10 11 11 10 9 10 11 12 11 10 9 12 10 9 6 5 7 7 6 5 3 4 2 4 3 2 2 5 4 3 4 7 6 2 6 4 7 5 6 6 4 3 8 13 14 15 15
23 23 22 21 22 22 21 21 19 19 20 22 20 18 17 16 14 13 14 16 16 16 16 15 17 18 21 14 11 4 5 8 5 1 3 7 10 10 10 9 11 11 13 13 12 11 10 13 14 12 10 10 11 8 9 8 7 5 7 7 5 4 4 3 4 3 3 3 2 2 5 2 2 1 0 5 7 6 5 3 3 4 4 6 10 12 12 13
22 21 20 21 21 20 21 20 20 19 20 22 20 19 17 16 15 14 14 16 16 16 16 17 17 19 15 11 11 10 9 7 2 6 6 7 9 10 9 8 11 13 13 11 12 11 10 11 13 13 7 12 12 8 9 10 6 6 8 8 7 5 5 4 5 3 4 3 3 5 4 3 2 1 6 7 5 5 3 2 2 2 3 6 8 10 11 12
22 21 20 20 20 20 20 19 20 21 21 21 20 20 18 19 16 16 14 15 13 15 16 18 20 21 12 10 7 7 4 4 3 6 6 6 7 8 7 6 13 14 13 12 10 11 12 9 12 13 10 5 10 7 9 11 3 10 10 9 8 7 6 2 3 4 3 4 4 4 5 3 2 2 3 5 5 3 4 4 3 4 6 6 6 8 8 10
22 22 22 21 21 21 20 20 20 22 21 20 20 19 19 17 17 15 15 14 14 14 16 19 18 17 9 8 11 9 1 3 3 4 6 7 8 9 9 7 12 12 12 9 9 11 10 9 12 2 2 4 8 4 3 2 4 11 12 10 8 5 4 5 5 5 5 4 2 3 3 3 4 3 3 6 4 2 4 5 5 5 6 6 7 7 7 7
23 24 24 22 22 21 19 18 18 20 20 21 19 19 17 17 16 14 14 15 16 16 16 16 19 10 6 8 10 4 2 2 3 4 5 8 6 5 2 4 10 9 10 9 11 10 9 5 2 9 3 8 7 7 2 2 5 11 14 8 8 7 6 3 5 5 4 3 2 1 3 7 8 8 6 7 4 3 1 3 5 6 6 5 6 6 7 7
24 24 24 22 23 23 22 20 20 19 19 19 18 17 17 17 15 15 14 15 15 16 15 17 14 8 6 9 6 1 2 3 3 6 4 3 4 3 2 1 3 4 5 8 10 9 5 1 4 8 9 8 9 4 7 2 7 8 9 7 8 7 6 6 3 3 3 3 1 2 5 7 13 9 8 5 4 3 3 4 5 5 6 6 6 6 6 7
24 24 24 22 21 23 23 22 20 21 19 18 18 17 16 17 18 16 16 13 14 13 13 16 10 7 5 7 4 1 2 3 5 7 7 7 8 3 5 2 0 3 3 3 5 2 4 2 3 7 3 6 4 5 9 4 2 9 5 5 7 8 7 8 5 5 5 3 3 4 6 1 8 9 6 4 4 4 5 6 6 5 6 6 6 6 7 8
24 24 22 21 21 22 21 22 21 21 20 19 17 16 17 18 18 17 15 12 14 13 13 11 7 6 6 3 2 4 2 3 6 5 7 9 8 6 5 5 4 2 1 1 2 2 4 5 5 7 5 2 9 9 8 7 5 5 7 8 7 8 6 7 3 4 6 4 5 5 6 9 7 7 5 3 4 5 5 4 6 5 5 6 6 7 7 8
23 23 22 21 22 22 21 22 22 21 19 18 17 16 15 15 16 16 14 11 15 15 9 9 8 6 6 8 2 2 4 5 5 4 2 3 8 6 8 7 5 4 5 2 2 3 5 7 8 4 6 5 10 8 9 7 6 5 8 6 9 8 6 6 3 2 2 5 5 9 5 2 6 6 5 4 4 4 5 6 6 6 6 6 6 6 7 7
23 23 22 22 22 23 22 22 20 19 18 18 17 16 14 13 15 15 12 15 10 7 7 5 8 4 5 2 3 5 6 3 3 3 2 1 4 10 10 9 6 7 5 5 5 7 8 8 3 2 7 9 10 10 9 10 9 8 4 3 5 12 8 5 5 3 2 5 7 8 8 10 4 6 7 6 5 4 4 4 6 5 5 6 5 6 6 7
24 23 23 22 23 23 23 22 21 20 18 18 18 17 15 16 16 15 11 10 5 5 5 3 6 3 5 5 8 8 5 5 4 6 3 0 4 11 10 8 8 9 9 9 6 10 8 6 6 8 7 11 13 12 12 14 11 10 9 4 2 3 4 4 7 7 6 5 7 8 11 12 9 5 8 9 7 4 4 4 5 5 5 6 6 6 7 7
24 23 23 23 24 24 23 22 22 21 21 20 19 18 18 16 10 7 8 8 11 8 7 10 12 13 6 14 4 7 5 6 7 7 5 6 2 0 2 5 10 13 10 9 7 10 8 5 6 8 12 13 15 14 11 9 12 13 15 11 7 9 7 5 6 4 4 8 8 11 9 10 11 11 8 8 9 6 7 6 6 6 7 7 7 7 7 7
24 23 23 24 24 23 24 22 23 23 25 20 18 15 12 11 8 7 7 8 12 12 5 13 8 3 3 11 10 5 4 3 7 1 6 0 6 8 7 9 9 10 10 10 10 10 8 10 12 12 11 14 12 12 6 5 10 13 13 11 8 8 6 7 7 3 2 2 9 10 11 12 10 7 6 6 9 6 7 9 8 8 8 8 7 7 6 7
25 24 22 24 24 24 23 25 24 24 23 17 19 17 13 18 20 15 17 10 5 4 4 17 15 1 4 6 11 14 12 4 2 5 6 0 3 11 8 10 11 11 10 11 12 5 5 10 12 12 12 13 14 3 3 3 6 10 9 10 7 9 5 4 4 3 2 2 4 5 7 11 11 10 10 9 8 9 9 10 10 10 10 8 7 7 6 5
25 25 24 25 25 24 23 25 24 21 19 14 15 11 6 11 3 7 15 10 8 3 0 10 6 5 2 3 3 3 6 6 7 5 1 5 7 8 9 10 14 12 11 11 10 7 10 12 12 10 2 8 6 4 2 4 6 7 8 8 7 6 7 4 5 3 3 1 5 2 7 9 10 10 9 10 10 7 5 3 4 3 3 4 3 4 5 4
26 25 26 24 25 24 25 24 23 21 13 14 15 10 1 3 3 15 5 11 8 3 4 12 10 6 5 2 4 1 9 8 11 9 8 4 10 5 10 9 14 11 11 12 11 11 10 12 5 6 7 9 6 6 6 6 5 6 6 7 8 7 8 4 4 5 2 1 2 5 6 8 10 10 11 2 2 2 1 3 4 4 6 6 5 3 3 5
26 25 25 25 25 25 24 22 20 15 13 14 13 10 3 6 4 5 11 7 7 3 3 2 1 6 8 9 3 3 9 3 10 12 3 5 11 5 10 12 15 10 12 15 14 12 8 3 4 3 7 10 10 9 9 8 7 3 5 6 4 6 4 4 6 5 3 3 1 6 7 9 8 9 8 4 3 2 3 3 3 4 4 3 3 4 5 5
25 25 25 25 25 25 23 21 14 13 11 11 15 11 7 5 4 7 9 7 5 3 3 2 1 3 5 2 1 3 5 5 5 4 3 5 9 5 9 3 7 10 13 14 13 12 4 1 2 6 10 10 11 10 10 9 7 5 3 2 3 8 7 8 10 8 4 4 4 1 4 6 7 10 9 6 5 5 4 4 4 2 2 3 3 3 1 3
26 26 26 25 25 24 24 13 13 14 13 14 10 9 9 2 4 4 4 7 9 4 1 7 1 6 2 4 2 2 9 4 3 2 2 1 4 2 5 3 1 12 13 14 12 2 1 1 2 7 8 9 11 10 11 10 7 7 6 4 3 6 8 9 9 5 4 4 3 1 6 3 5 6 7 5 4 5 4 4 3 2 2 2 2 1 1 0
26 26 26 26 26 28 16 9 15 16 13 11 14 4 2 2 3 4 6 5 9 7 10 3 1 2 1 3 2 8 10 6 2 2 3 2 3 4 8 6 3 5 3 5 1 5 5 4 3 5 8 7 7 10 6 9 6 6 3 2 5 8 9 9 9 7 2 4 4 2 2 4 5 3 6 6 5 5 5 5 4 3 2 1 1 1 0 1
26 26 26 27 28 23 8 13 19 18 12 3 6 6 2 1 1 2 2 8 7 9 8 3 2 1 1 4 3 3 4 18 9 4 3 2 2 4 3 10 8 8 2 5 10 4 3 6 6 8 8 8 9 1 4 11 5 1 0 2 6 7 8 8 7 3 2 2 3 5 2 3 7 3 4 6 6 7 8 7 5 3 2 2 1 2 2 2
25 25 26 26 28 11 3 14 19 18 8 3 6 6 3 3 3 6 5 6 4 5 3 10 0 3 6 5 4 3 5 2 3 6 3 2 3 1 7 9 7 10 6 5 5 3 2 1 3 3 9 9 4 3 6 2 6 1 3 4 7 7 6 5 3 3 2 3 5 6 3 4 7 4 5 4 6 9 9 7 5 3 3 2 2 3 3 3
25 26 27 28 20 6 11 12 13 8 7 5 7 7 6 3 6 7 7 7 9 7 4 4 7 11 12 13 7 4 8 3 3 6 6 7 5 1 4 1 11 8 4 7 9 4 2 1 3 3 1 4 6 6 3 5 7 10 7 11 8 6 4 3 1 2 3 4 4 5 0 2 3 5 7 7 5 6 8 6 4 5 4 3 3 3 2 3
25 26 25 28 13 9 13 13 10 7 7 5 10 8 6 3 9 8 8 4 9 6 5 9 9 14 16 17 10 3 6 4 8 14 8 7 7 4 8 6 5 6 4 4 5 3 4 4 2 3 1 3 3 8 7 1 7 8 5 8 9 5 4 3 2 1 4 5 3 3 1 2 6 3 3 5 3 1 6 9 9 8 7 5 4 3 3 3
24 25 25 19 9 8 9 11 12 9 6 8 11 9 10 11 5 12 7 10 11 9 10 12 13 14 18 15 8 10 9 8 9 13 12 10 9 10 11 8 9 6 7 9 5 4 5 4 3 4 2 1 5 9 4 3 2 2 9 9 7 5 3 4 3 5 7 4 2 2 1 2 11 10 3 1 3 2 2 5 9 10 8 7 5 4 3 3
25 21 24 10 8 6 5 7 11 8 9 9 8 8 12 10 11 13 7 12 5 16 10 11 16 18 17 14 10 11 6 10 7 9 11 10 9 8 4 4 12 6 8 9 7 6 3 5 3 3 3 5 6 9 6 5 6 8 10 10 7 6 5 5 6 2 1 3 3 3 1 5 5 7 10 7 6 6 6 7 8 9 9 8 6 5 4 3
24 22 16 7 7 3 5 7 8 12 11 8 8 10 8 9 9 11 9 8 6 4 14 13 17 16 18 11 10 12 6 5 10 5 11 9 10 9 7 4 3 3 3 11 9 9 5 2 8 10 4 8 5 3 7 5 11 10 2 9 6 5 3 6 6 6 3 1 3 4 1 3 5 2 6 6 9 8 7 6 6 6 7 6 5 5 5 5
22 21 12 8 5 4 6 8 9 12 10 8 10 8 12 11 7 16 11 6 5 12 12 15 17 17 12 5 11 4 2 5 3 8 7 12 11 9 12 11 6 1 6 11 1 3 7 2 5 5 3 1 8 1 3 4 7 1 1 3 2 4 3 1 2 1 3 3 3 2 5 3 3 5 4 4 8 7 7 7 6 6 6 6 6 6 5 5
17 12 9 8 7 4 6 7 9 11 9 10 11 10 14 9 7 12 8 11 11 12 18 16 12 13 8 5 1 6 2 2 8 7 4 10 9 11 11 9 10 11 9 8 5 6 1 3 3 2 0 1 2 4 1 3 7 6 3 4 2 5 6 4 2 3 1 1 4 5 4 6 4 5 8 8 9 7 6 8 8 8 8 7 6 5 5 5
13 11 9 9 6 6 6 7 5 8 7 10 12 12 7 2 4 10 6 13 13 19 19 16 11 11 11 9 9 9 5 7 7 6 7 5 3 9 12 9 11 12 8 2 1 2 7 4 2 1 4 2 2 4 2 5 3 5 3 6 3 0 3 1 3 2 2 4 2 4 5 5 5 3 9 11 10 9 8 10 9 9 8 8 6 5 5 5
11 8 7 7 5 8 7 7 9 6 5 8 12 14 5 4 1 4 11 15 15 13 11 11 5 5 13 12 12 14 10 9 10 3 7 12 3 11 11 8 8 10 7 3 1 3 4 4 2 3 2 2 0 2 2 1 3 2 1 1 5 3 4 3 2 2 4 4 4 5 8 6 6 5 7 12 13 13 12 12 12 11 10 9 8 7 6 6
10 10 8 4 4 7 8 8 7 8 8 7 10 14 1 3 2 4 5 14 11 13 13 9 9 2 8 11 11 12 15 10 13 8 8 7 6 10 15 8 5 7 6 4 3 2 1 2 2 2 2 2 1 4 7 5 3 3 1 2 3 2 4 5 5 2 2 5 3 3 4 4 7 6 12 14 16 16 15 14 14 14 13 10 9 8 7 7
10 8 3 2 3 8 8 7 8 7 7 13 10 4 4 4 2 1 4 7 11 11 7 9 6 7 6 7 15 12 10 8 14 8 7 7 6 2 11 11 8 7 7 2 3 2 3 3 3 2 1 2 4 5 7 9 8 5 6 6 2 1 2 3 2 5 4 4 5 5 3 4 5 9 11 14 17 17 17 16 14 14 13 11 10 9 8 7
1 3 4 2 4 7 7 7 9 11 10 6 1 3 2 4 6 2 2 6 4 6 2 9 12 10 7 9 9 8 4 5 8 8 5 6 11 3 7 11 10 9 7 3 3 3 2 2 4 5 4 5 3 5 3 4 2 7 9 9 10 7 4 6 5 2 0 3 3 3 5 1 3 4 1 5 10 15 15 16 14 15 14 12 10 10 9 8
5 8 6 3 3 7 10 12 7 7 6 7 6 3 5 3 8 8 3 1 4 4 3 4 3 6 10 9 11 10 7 8 9 6 6 6 10 5 1 4 9 14 11 7 7 1 1 3 6 5 4 5 3 2 3 1 1 2 2 6 8 7 5 4 7 3 1 1 3 1 3 3 4 2 3 2 5 2 14 15 14 14 14 12 10 10 8 8
2 4 3 0 3 9 10 7 7 9 6 3 6 7 7 5 5 6 8 3 4 1 2 3 6 7 1 3 8 9 13 4 9 8 5 7 5 3 1 3 11 13 8 2 6 4 2 3 4 3 3 1 3 1 3 1 2 3 7 4 2 9 10 6 3 2 4 4 2 3 4 3 3 2 2 3 2 5 1 14 15 14 12 11 11 10 10 9
3 5 4 2 2 4 9 12 15 12 7 5 5 6 2 3 7 7 6 7 4 4 5 4 2 3 6 2 8 12 13 4 6 4 6 3 3 2 1 6 15 9 11 9 11 8 4 2 5 5 2 2 2 2 1 1 1 5 7 8 7 1 6 3 1 0 2 7 7 5 7 6 3 1 2 1 2 3 2 9 13 14 12 11 11 9 8 8
6 3 5 2 1 4 10 5 10 11 12 12 10 10 7 4 4 4 6 7 1 2 6 4 2 6 4 4 5 5 12 2 4 4 3 3 2 1 4 5 12 10 3 4 6 10 5 6 9 7 8 8 8 9 10 8 11 6 3 3 9 7 7 3 4 4 6 4 9 5 7 5 3 3 3 4 5 5 5 8 10 9 12 12 10 9 10 9
1 7 1 3 2 2 5 4 4 9 12 11 11 9 9 6 2 2 2 5 2 3 4 6 2 4 6 9 5 6 8 2 1 5 6 5 2 2 1 3 5 3 3 2 8 10 2 1 8 11 11 11 9 9 6 7 7 6 12 13 12 13 12 7 1 5 9 4 7 9 10 7 3 6 5 6 7 10 12 10 12 11 10 10 10 10 11 10
2 4 5 6 5 4 5 6 4 9 11 14 9 10 11 10 8 4 4 4 4 2 3 2 5 8 6 12 9 9 10 5 1 6 7 8 3 3 4 2 4 4 2 3 8 5 1 3 7 10 11 11 5 2 6 14 12 15 17 15 14 12 10 9 10 13 10 3 8 9 11 9 13 8 8 8 8 8 9 11 11 9 10 11 11 10 10 9
3 1 4 3 1 11 10 12 11 12 11 15 8 10 12 12 11 8 3 3 4 2 5 2 2 3 14 15 12 7 9 6 4 5 5 3 6 2 4 3 2 1 1 4 3 4 5 7 10 11 13 10 5 3 8 10 12 10 12 10 12 14 13 12 13 15 9 8 12 14 13 14 16 10 9 11 11 12 15 16 17 16 11 9 10 11 12 11
2 1 1 5 1 2 7 6 14 13 13 16 6 14 13 15 14 10 7 6 4 5 4 6 11 9 12 10 11 7 11 7 4 4 5 5 8 7 4 3 2 2 2 3 4 1 3 6 7 10 12 9 4 3 2 8 7 8 9 11 13 13 14 16 16 16 17 13 13 14 4 14 12 9 10 10 10 10 9 7 6 9 11 11 11 11 12 12
2 1 1 3 6 6 6 11 12 11 14 15 6 13 12 15 14 8 6 7 7 7 2 3 11 9 9 10 9 9 13 14 12 9 4 9 2 3 6 4 6 3 3 6 4 2 3 3 6 4 5 7 3 3 2 2 4 6 4 8 12 13 15 14 14 16 17 17 14 12 7 9 9 7 6 4 7 5 7 11 13 13 11 12 13 14 14 13
2 2 2 3 5 2 3 11 12 14 11 13 9 11 10 15 12 11 5 3 4 9 9 10 11 8 2 4 3 4 10 4 3 10 15 18 11 11 9 2 8 9 4 3 2 1 2 1 2 4 5 4 2 4 4 3 3 1 2 6 11 11 13 12 13 13 14 14 17 14 14 12 11 8 3 6 7 9 10 11 12 12 12 13 15 14 13 13
2 0 1 2 3 3 1 5 12 11 10 13 10 13 10 16 11 12 6 2 4 3 7 9 10 9 3 5 9 3 5 6 6 5 8 3 6 6 5 6 14 14 7 7 3 5 5 3 3 4 5 4 3 1 5 4 1 4 8 12 16 17 17 15 14 14 14 16 16 11 16 16 3 10 7 5 7 9 10 11 12 13 13 14 15 15 15 13
Wind_Direction
191 188 187 186 189 190 186 188 192 191 189 188 184 181 174 168 166 166 164 159 163 173 166 161 151 147 133 137 127 126 105 87 90 202 245 244 224 249 258 346 165 152 160 211 203 176 186 204 212 170 193 194 187 212 129 228 230 207 204 225 209 197 208 144 187 142 96 135 137 162 174 173 152 166 155 195 190 158 140 175 122 103 124 86 114 111 125 133
190 188 186 185 187 185 186 186 189 191 188 188 185 186 181 174 170 167 165 155 166 173 172 154 155 141 138 130 127 112 101 70 30 269 239 187 171 260 276 204 173 168 184 215 206 206 200 194 208 184 195 198 134 191 155 174 247 203 201 228 219 205 82 41 81 57 282 126 146 158 178 201 158 165 161 206 160 171 171 180 164 160 140 119 121 134 138 149
189 188 185 182 184 183 183 184 186 189 188 186 185 184 181 176 167 168 164 159 165 169 167 157 148 146 138 131 123 110 98 76 9 260 256 244 250 247 234 213 181 185 197 215 211 208 208 198 191 191 206 201 180 171 214 169 236 220 252 200 99 64 88 65 48 83 38 72 141 152 170 208 116 168 145 229 152 176 199 165 182 189 164 157 139 149 148 162
185 187 186 180 181 182 181 181 182 185 187 185 184 181 178 173 168 170 166 162 167 168 161 157 147 142 138 131 114 111 80 49 269 246 247 245 223 221 213 198 192 193 217 245 228 210 222 214 189 198 204 236 180 188 192 171 219 124 220 245 114 110 134 77 56 63 52 358 144 149 146 194 162 156 185 186 173 195 217 176 177 191 177 162 150 157 163 170
184 184 183 178 178 182 180 180 178 179 182 182 179 178 173 167 168 171 171 164 170 167 166 154 146 136 136 130 117 101 95 73 236 211 144 263 224 198 203 196 182 201 218 223 220 212 244 224 182 200 224 210 179 182 200 156 257 162 182 39 60 116 108 70 74 58 42 341 145 133 159 185 124 183 210 205 220 123 142 113 70 47 158 152 153 157 166 174
182 182 183 176 174 177 180 178 175 174 175 183 181 170 165 163 162 169 171 174 170 168 163 155 139 132 132 128 125 124 134 208 97 150 17 237 212 196 191 180 181 207 212 207 204 197 218 221 190 196 213 222 181 193 156 170 202 185 129 97 51 18 54 82 99 66 300 132 151 161 129 109 181 188 204 242 250 72 41 51 54 65 58 146 149 153 168 178
177 181 181 177 171 176 177 175 172 170 177 182 177 162 160 154 159 166 172 176 168 168 159 149 143 138 129 127 112 153 202 278 347 72 292 207 161 160 152 149 168 199 206 203 192 187 208 210 200 195 207 204 182 194 149 165 216 257 154 125 87 18 68 52 77 123 99 177 130 71 92 204 184 204 112 240 248 92 76 51 50 66 109 141 154 166 173 182
176 181 182 177 171 172 174 168 165 169 177 178 176 160 155 151 160 167 172 171 171 165 159 153 147 137 137 129 119 182 243 249 225 277 55 140 128 121 136 161 176 191 204 202 186 196 192 212 199 194 217 199 175 187 157 168 207 204 125 138 106 86 80 88 107 131 140 78 64 133 178 159 223 334 108 227 228 125 105 63 78 86 138 172 168 174 179 185
174 175 177 174 165 166 168 163 163 170 175 173 171 160 151 153 159 161 162 169 168 167 162 153 150 147 156 149 149 146 221 220 99 158 137 128 128 129 155 159 186 189 200 198 197 195 194 207 211 209 188 207 169 165 174 175 198 227 130 122 130 110 109 113 120 129 146 121 150 168 180 110 73 360 260 238 119 86 98 136 144 159 161 179 185 181 181 185
170 169 171 167 158 158 162 161 163 171 168 165 166 160 154 158 162 164 165 167 162 163 169 159 155 158 172 171 167 186 206 98 143 156 151 130 122 136 201 185 183 195 195 193 198 205 202 201 215 216 300 266 177 168 175 207 122 116 125 127 126 120 123 184 136 132 135 120 164 210 178 156 117 243 210 108 94 100 166 161 152 204 212 195 189 186 189 187
166 166 167 165 157 153 157 158 162 166 162 157 160 154 155 157 164 165 170 164 168 175 170 165 159 165 183 205 171 196 70 174 134 148 160 152 144 154 190 209 194 197 194 184 203 203 202 217 204 293 265 221 171 128 219 103 130 125 121 110 109 122 116 123 123 138 162 123 214 276 158 121 140 174 270 126 85 96 186 175 166 195 216 204 195 186 189 193
163 166 166 163 157 152 150 152 156 163 156 161 158 156 156 159 160 166 169 169 174 179 172 168 166 177 194 202 212 204 259 50 138 152 170 172 153 146 128 216 200 208 193 186 203 207 212 207 308 212 225 149 184 108 138 193 177 140 138 136 134 143 135 170 152 152 246 122 215 317 228 216 183 227 174 119 121 133 154 173 173 191 202 198 194 187 187 194
161 162 163 160 156 150 149 152 157 159 159 155 153 152 157 160 159 164 171 171 175 176 169 171 167 200 208 199 212 70 224 133 142 150 170 117 94 87 113 255 243 280 249 226 199 198 197 210 261 232 255 248 144 195 110 136 144 155 187 153 154 174 187 154 117 153 226 100 201 216 246 228 200 189 111 125 160 151 204 215 186 186 192 197 197 197 197 189
159 161 161 159 154 150 148 148 155 161 156 151 153 151 156 161 161 165 168 171 169 169 170 164 182 197 241 199 88 128 125 131 156 160 159 156 150 114 137 142 154 259 316 309 55 78 155 173 238 269 336 280 156 147 135 86 159 181 150 180 192 177 189 141 169 145 202 129 201 233 254 303 128 126 108 133 161 188 205 207 190 188 183 188 192 203 203 198
159 158 158 157 152 148 145 146 153 160 152 153 146 152 158 157 158 158 162 157 169 162 160 162 192 189 223 164 78 94 85 177 170 173 162 177 161 138 142 167 142 167 72 324 101 110 144 163 204 226 208 359 124 167 128 150 189 172 162 201 201 210 124 132 128 173 221 150 214 214 250 260 119 128 112 122 173 190 227 192 191 193 194 191 193 201 204 206
158 158 157 154 150 146 145 145 151 155 151 148 145 149 147 147 149 149 158 158 156 148 152 160 191 256 214 202 112 131 161 190 178 131 175 287 183 161 148 135 127 127 170 115 153 148 161 174 213 238 121 184 173 166 151 147 182 199 209 179 193 206 154 152 167 146 347 146 190 217 268 242 120 113 136 130 144 170 207 225 223 216 208 204 206 203 206 204
159 158 156 152 149 146 145 143 149 151 147 142 142 136 137 137 144 145 156 138 143 150 177 177 183 224 212 40 146 199 187 144 86 124 182 259 300 138 134 131 149 151 140 128 158 162 153 185 105 203 210 189 196 180 170 187 181 195 209 234 190 196 174 198 110 195 156 233 196 210 244 254 86 136 143 161 166 156 193 214 219 213 213 210 209 209 207 209
158 157 155 152 148 146 144 145 146 145 139 138 140 139 136 142 138 133 129 144 139 180 197 332 186 184 252 117 194 194 123 123 175 134 95 14 276 158 150 160 140 150 145 138 153 179 168 181 175 202 183 205 200 194 195 195 186 176 184 193 159 265 250 207 172 149 187 202 238 204 232 250 249 155 159 170 181 194 225 238 236 227 218 216 213 216 217 216
157 156 154 151 147 145 144 145 144 135 138 137 132 132 136 135 139 136 141 161 154 151 190 179 184 191 208 179 106 99 116 120 107 132 157 174 227 198 151 140 166 150 169 170 165 185 174 186 204 205 198 197 201 203 202 201 186 187 186 198 187 190 193 212 83 116 219 188 213 224 230 241 239 241 222 183 181 216 247 248 248 245 245 239 226 221 222 219
155 155 153 149 147 143 145 143 138 141 144 144 146 147 145 139 153 154 176 205 194 175 340 170 199 31 38 134 127 79 100 198 124 144 135 78 154 168 156 169 160 186 164 188 154 198 163 190 195 202 199 197 199 205 213 254 204 195 192 199 198 190 169 84 92 65 310 254 224 225 240 253 258 245 236 233 163 201 231 242 237 236 239 238 233 226 220 215
155 154 150 149 144 143 143 146 143 149 153 160 163 162 166 171 155 172 170 186 159 21 306 162 185 83 42 110 120 145 134 116 119 145 153 230 251 161 157 167 172 190 188 180 167 111 206 203 206 205 201 190 198 114 158 170 198 189 182 194 193 200 181 87 112 115 47 276 211 216 259 261 259 256 251 244 218 224 230 231 231 230 229 230 224 228 224 220
153 151 146 146 144 141 142 147 149 152 163 173 183 183 158 178 345 92 136 143 83 41 44 130 111 83 63 120 131 19 147 114 120 131 113 200 186 196 165 192 177 188 176 178 151 154 199 210 202 193 132 142 109 127 141 173 180 189 197 193 205 182 90 133 98 102 119 173 245 121 260 262 257 253 240 232 222 229 235 253 253 272 257 246 245 249 249 237
152 151 150 146 146 142 144 148 154 155 172 186 197 232 218 33 281 133 166 105 101 353 117 151 165 97 97 42 248 186 156 148 157 173 169 220 169 249 154 195 183 180 156 178 178 175 192 213 141 114 149 136 133 155 157 142 178 184 192 191 210 142 177 188 156 148 132 251 334 3 291 275 268 257 246 126 166 227 317 262 254 243 243 244 252 283 292 279
152 152 149 148 144 143 140 150 146 165 192 196 209 218 356 302 294 197 142 143 127 164 23 71 135 137 155 156 181 205 170 114 141 166 121 198 171 152 172 191 182 183 183 192 195 189 189 74 356 166 148 169 166 176 182 178 177 196 201 193 169 153 160 352 142 146 117 194 284 287 275 265 243 239 216 134 134 187 208 214 220 196 218 258 269 259 240 264
151 151 148 144 144 141 146 143 160 182 178 203 223 228 272 303 318 334 152 100 118 102 321 329 282 160 158 55 231 226 110 80 21 97 150 206 152 144 179 194 199 189 189 190 202 203 144 27 319 167 176 177 175 185 198 196 197 170 242 304 152 166 119 108 121 139 187 207 174 265 267 257 216 212 224 139 172 179 153 205 198 175 182 201 229 230 237 229
153 151 150 145 143 145 140 153 177 170 176 200 211 242 250 262 322 324 185 135 162 141 95 175 186 162 117 189 98 219 145 118 352 19 104 313 342 203 111 173 325 190 185 184 204 205 67 117 239 149 167 185 193 201 197 206 209 185 178 136 103 149 135 136 152 180 190 236 129 276 232 261 134 210 195 164 188 179 148 200 185 177 192 183 200 210 227 285
153 153 150 149 147 147 153 173 161 160 171 220 227 235 248 269 336 297 178 142 192 151 166 71 221 114 277 129 184 157 180 161 155 142 150 4 165 352 178 154 139 13 83 140 360 201 142 125 96 170 152 171 184 210 170 206 213 203 22 170 139 152 147 160 166 209 57 82 102 220 254 266 278 199 140 152 189 200 198 183 185 160 165 163 135 141 95 112
155 153 152 152 154 160 154 146 159 173 177 62 172 188 102 164 244 276 247 134 212 131 183 182 296 7 225 145 341 223 7 130 133 184 17 146 239 137 299 167 180 156 130 176 199 65 159 140 162 150 177 179 201 220 125 199 239 60 44 273 162 174 163 162 183 182 36 267 211 171 156 255 244 212 121 158 210 211 212 197 171 151 118 112 114 93 110 86
153 154 152 151 157 186 231 154 164 172 174 114 140 127 96 115 254 193 179 191 116 120 1 138 192 178 128 149 105 75 144 5 172 118 135 110 13 238 204 171 151 105 47 12 216 109 21 137 142 188 171 189 73 39 357 21 198 183 184 95 82 82 110 165 177 166 170 213 240 162 176 236 267 205 170 180 239 221 206 180 163 132 119 104 99 92 90 92
154 152 154 154 156 142 149 149 169 156 110 131 113 114 131 188 151 194 170 225 130 158 173 104 190 169 163 154 139 162 156 76 59 128 159 167 145 159 29 318 131 128 119 63 65 29 5 340 262 19 218 46 105 60 23 28 74 141 167 113 105 102 112 76 74 189 183 238 224 84 239 302 284 225 196 174 198 228 172 157 139 131 128 120 99 105 101 97
153 154 156 163 160 157 144 158 160 115 115 128 133 139 158 160 185 175 190 170 135 91 124 163 154 156 169 164 153 169 115 107 134 143 128 138 126 121 142 127 114 114 102 107 69 108 101 107 172 67 307 168 109 84 41 27 133 154 147 138 121 106 138 171 169 215 228 239 85 342 80 277 220 230 203 71 49 22 165 173 162 156 151 138 133 117 97 96
152 156 159 166 148 158 161 165 136 123 129 153 145 155 169 156 184 204 176 133 180 169 178 161 160 168 174 172 138 158 142 127 154 162 156 165 155 167 180 166 170 146 190 179 161 125 121 124 77 64 291 221 168 104 65 82 205 214 155 160 164 158 168 188 181 200 219 241 88 67 267 238 239 248 72 193 140 118 205 163 157 153 146 140 133 119 104 92
152 156 161 158 125 183 67 99 121 123 140 165 166 175 173 167 188 197 173 165 168 154 180 171 162 168 170 156 147 139 135 157 174 176 155 163 162 179 172 220 179 177 185 177 127 170 103 117 158 104 177 240 228 160 140 165 199 189 180 176 186 174 180 210 194 216 210 67 269 99 25 260 308 259 256 199 151 131 111 113 135 142 142 137 132 125 117 94
150 154 163 150 163 85 108 141 129 140 149 171 170 170 193 185 204 198 165 184 126 139 146 159 155 162 166 175 149 152 113 24 170 138 172 159 176 175 190 246 210 155 228 144 168 178 156 215 205 170 173 168 222 265 167 169 172 197 205 194 204 190 179 193 189 189 205 122 112 241 180 233 183 175 27 37 120 109 95 96 85 102 115 115 113 114 120 110
146 159 152 134 102 99 127 146 139 151 158 163 167 187 183 199 182 184 179 148 140 141 136 144 150 157 160 123 149 159 14 138 240 144 169 165 183 184 182 189 193 233 146 154 170 180 195 119 45 8 337 322 189 297 325 150 166 159 302 16 280 227 1 229 37 346 122 150 145 168 235 307 297 103 107 106 113 108 112 111 135 126 128 129 138 142 133 123
145 166 155 154 155 120 135 155 155 167 169 171 169 186 205 192 181 175 181 133 151 150 135 145 149 153 147 118 171 170 299 99 182 167 180 189 184 190 179 183 181 190 174 182 131 182 92 179 18 104 32 97 33 346 357 281 187 177 147 207 173 14 103 107 123 89 6 334 248 139 241 249 228 184 140 148 142 134 136 149 154 152 150 159 154 142 134 123
162 156 158 153 137 145 146 154 165 166 188 187 179 194 204 131 337 172 119 150 155 140 150 147 180 158 167 162 173 182 148 107 161 179 175 167 222 207 182 187 173 184 219 147 137 309 185 112 38 15 161 59 11 342 33 49 320 99 216 180 138 270 359 175 225 127 230 231 227 135 210 233 161 242 146 152 171 158 170 170 170 163 164 172 158 152 139 129
149 155 134 137 125 145 143 158 157 166 188 196 199 199 32 166 307 93 132 110 145 154 153 163 134 188 171 161 177 170 165 166 175 214 168 172 230 177 187 166 158 183 171 5 185 177 111 109 108 2 39 51 113 247 129 115 35 298 169 97 177 183 212 191 246 204 204 221 241 193 214 253 234 201 159 179 184 181 180 177 176 171 180 175 162 152 135 123
144 150 145 119 142 144 147 165 169 155 175 197 207 201 90 52 81 118 129 141 148 159 169 177 154 240 165 174 157 167 165 187 156 183 153 191 212 171 190 162 164 184 162 137 163 105 349 147 118 48 61 99 214 210 198 173 178 56 183 192 38 342 236 178 200 288 206 236 214 210 133 241 198 229 175 186 194 186 177 178 185 179 181 173 164 159 156 161
153 151 124 95 127 154 156 180 143 167 187 202 192 194 112 120 164 111 353 156 162 175 183 148 166 133 171 159 153 160 184 181 161 181 202 153 198 93 204 175 153 167 131 64 73 169 159 333 141 111 360 176 180 208 215 175 168 167 181 178 191 214 6 341 228 216 220 235 227 240 225 231 202 198 193 193 193 189 180 179 179 178 179 171 165 162 167 165
235 118 91 130 165 167 163 158 150 181 194 208 230 127 166 139 147 127 94 3 76 7 177 171 155 163 160 138 165 143 120 140 170 176 180 153 190 184 214 189 145 138 122 122 125 191 138 225 140 133 150 209 172 34 356 6 239 198 189 192 191 164 167 185 214 88 16 224 238 215 242 304 89 10 241 217 196 191 182 172 174 173 173 166 163 168 167 161
152 138 147 168 245 210 171 150 189 190 204 195 170 138 153 124 139 154 133 39 16 116 345 80 45 148 149 168 153 162 150 168 179 171 209 178 202 244 103 168 147 147 154 173 182 66 90 82 111 158 183 184 47 46 24 300 206 304 308 218 198 203 200 203 226 181 178 210 24 323 351 244 71 44 9 43 17 184 171 165 168 170 169 164 163 162 162 160
127 85 48 321 253 197 173 163 166 180 201 153 71 61 102 134 133 155 159 199 160 326 113 145 168 138 241 111 160 156 160 162 164 201 173 203 184 143 178 168 136 160 145 83 64 204 61 119 104 78 62 335 182 175 181 173 314 269 243 257 243 202 207 228 271 104 179 124 212 224 229 254 103 61 28 37 9 347 180 169 166 166 164 162 156 159 158 155
92 115 98 19 121 230 193 173 178 192 180 111 157 104 5 123 145 151 187 181 165 169 160 136 77 316 149 139 145 171 170 122 220 162 189 149 187 91 231 145 156 167 170 180 177 183 175 183 128 138 135 147 242 183 173 120 212 229 222 200 214 72 74 97 123 299 266 184 205 198 237 253 130 156 61 146 109 166 192 178 168 161 160 156 157 154 150 151
114 63 54 31 14 217 189 196 189 178 171 163 151 154 149 115 11 168 181 162 31 126 144 151 116 145 96 140 143 135 179 146 139 242 67 203 83 360 353 173 172 186 141 19 58 160 193 156 165 162 174 178 188 200 202 198 209 207 229 158 184 191 178 145 228 193 243 184 196 223 245 252 95 157 159 149 152 165 188 182 176 162 154 156 155 156 160 163
110 125 202 92 16 222 279 3 305 176 167 160 163 168 156 131 138 25 54 108 6 96 23 116 16 109 120 136 140 159 175 353 154 160 170 159 132 11 349 294 194 176 26 108 141 149 166 129 204 192 191 201 202 211 198 133 106 182 202 197 195 201 197 199 1 220 222 198 199 217 235 250 187 179 179 183 180 180 179 182 175 161 160 157 157 164 168 170
349 104 156 149 77 240 242 218 210 179 178 169 169 161 173 159 136 136 323 172 203 155 107 57 159 152 166 161 160 174 187 128 350 144 175 133 42 85 50 28 94 44 15 112 173 120 121 181 204 222 228 228 230 145 126 160 175 195 196 199 200 190 188 193 202 222 208 197 244 229 229 242 248 187 187 191 195 191 185 186 179 161 167 167 164 161 160 166
94 11 11 333 244 177 177 210 203 184 171 173 173 157 172 145 157 156 128 356 134 234 150 43 244 222 168 172 153 162 165 155 138 152 106 84 112 119 85 26 172 36 192 145 229 181 173 208 202 211 227 227 69 143 163 181 201 206 210 186 174 179 182 187 215 232 212 210 232 236 215 228 243 223 191 189 185 189 190 190 188 181 159 148 149 159 172 176
40 76 324 322 189 85 203 169 185 184 172 180 164 176 177 165 173 165 157 147 170 201 247 170 189 189 181 166 157 152 153 141 221 163 175 159 155 140 128 81 276 130 148 121 138 272 181 229 199 201 220 218 117 123 196 197 196 207 197 188 187 177 186 197 215 221 218 222 229 243 177 225 237 234 218 190 185 196 196 177 152 155 168 164 165 168 179 184
48 41 93 45 53 71 131 170 180 186 189 184 168 187 183 178 169 125 143 154 162 191 193 226 174 164 175 176 174 173 183 194 177 159 173 131 101 223 167 173 137 77 334 151 161 263 210 210 159 146 222 217 99 94 63 270 211 207 186 184 177 183 196 205 216 226 225 236 242 252 280 271 248 227 231 106 123 122 141 166 183 186 170 168 176 185 189 187
68 355 318 115 108 41 120 170 177 187 185 191 199 176 190 188 177 156 132 11 193 175 172 192 139 124 72 170 194 197 186 166 124 169 160 161 173 190 165 201 140 140 162 132 141 86 182 224 27 136 206 213 133 144 146 83 35 356 141 168 180 175 200 207 219 220 215 223 235 241 251 253 250 166 131 105 121 148 168 179 185 191 186 181 189 191 188 187
54 176 71 341 84 355 131 147 181 179 201 195 192 173 181 187 167 143 125 165 36 74 171 132 134 122 147 169 206 168 104 91 62 110 157 41 29 78 31 150 162 153 167 181 160 153 182 146 151 173 210 207 35 135 125 113 90 261 229 203 196 199 202 208 215 221 213 213 226 226 235 241 210 151 157 153 171 181 187 188 194 197 193 188 192 192 193 188